Regional Weather Roundup
Issued by NWS Green Bay, WI

Home | Current Version | Previous Version | Text Only | Print | Product List | Glossary On
Versions: 1 2 3 4 5 6 7 8 9 10 11 12 13 14 15 16 17 18 19 20 21 22 23 24 25 26 27 28 29 30 31 32 33 34 35 36 37 38 39 40 41 42 43 44 45 46 47 48 49 50
000
ASUS43 KGRB 311310
RWRGRB

NORTH-CENTRAL AND NORTHEAST WISCONSIN REGIONAL WEATHER ROUNDUP
NATIONAL WEATHER SERVICE GREEN BAY WI
800 AM CDT THU JUL 31 2014

WIZ005-009-010>012-018-019-311400-
NORTH CENTRAL WISCONSIN

CITY           SKY/WX    TMP DP  RH WIND       PRES   REMARKS
IRONWOOD       NOT AVBL
MANITOWISH WTR SUNNY     55  55 100 CALM      29.99S
ARBOR VITAE    MOSUNNY   62  58  87 CALM      30.00S
EAGLE RIVER    FOG       55  55 100 CALM      29.99S VSB 1/4
LAND O LAKES   SUNNY     58  58 100 CALM      30.00S
RHINELANDER    CLOUDY    57  57 100 W5        30.01R FOG
PHILLIPS       FOG       57  57 100 CALM      30.00S VSB 1/4
ANTIGO         FOG       55  55 100 CALM      30.01S VSB 1/4
TOMAHAWK       FOG       55  55  97 CALM      30.01S VSB 1/4
MERRILL        PTSUNNY   55  55 100 CALM      30.00S
$$

WIZ013-073-311400-
NORTHEAST WISCONSIN

CITY           SKY/WX    TMP DP  RH WIND       PRES   REMARKS
IRON MOUNTAIN  SUNNY     58  54  86 NW3       29.95S
MARINETTE      SUNNY     57  55  94 N3        29.96S
OCONTO         SUNNY     57  57 100 W5        29.97S
$$

WIZ017-030-035>037-045-311400-
CENTRAL WISCONSIN

CITY           SKY/WX    TMP DP  RH WIND       PRES   REMARKS
MEDFORD        MOSUNNY   60  58  96 W6        30.02R
WAUSAU         SUNNY     61  59  93 NW8       29.99S
MOSINEE        SUNNY     63  63 100 NW7       30.01S
MARSHFIELD     SUNNY     63  60  90 NW9       30.01R
WISC RAPIDS    SUNNY     61  59  93 W5        30.02R
STEVENS POINT  SUNNY     61  57  87 W6        30.01S
WAUPACA        SUNNY     65  61  89 W5        29.99S
SHAWANO        SUNNY     60  59  95 W5        29.99R
CLINTONVILLE   SUNNY     61  59  94 CALM      29.98S
$$

WIZ038-039-048-051-311400-
FOX VALLEY

CITY           SKY/WX    TMP DP  RH WIND       PRES   REMARKS
NWS GREEN BAY  SUNNY     62  60  93 W6        29.98S
APPLETON       MOSUNNY   61  59  94 W7        29.99S
OSHKOSH        SUNNY     65  60  84 SW6       29.99R
FOND DU LAC    SUNNY     64  59  83 SW5       30.00S
$$

WIZ022-050-052-311400-
EAST CENTRAL WISCONSIN

CITY           SKY/WX    TMP DP  RH WIND       PRES   REMARKS
STURGEON BAY   SUNNY     63  57  82 NW5       29.97S
MANITOWOC      SUNNY     64  59  83 W7        29.98S
SHEBOYGAN      SUNNY     64  60  87 W3        29.99S
$$

LMZ563-521-522-541>543-311400-
LAKESHORE

STATION/POSITION TIME  TEMP    WIND        PRES    VSBY  WAVE
                       AIR SEA DIR/SP/G                  HT/PER
                 (UTC) (F)     (DEG/KT/KT) (MB)    (MI)  (FT/S)
SHEBOYGAN LKSHOR 1300   65     270/  6/  8 1015.7R
KEWAUNEE LKSHORE 1300   61     290/  4/  5 1014.3S
TWO RIVERS CG    1200   61                   N/A    3 1/2  0
NORTHPORT PIER   1300   64      CALM  /  2 1014.2S
N MID LAKE BUOY  1300   56 52  230/  4/  6 1013.8S         1
S GREEN BAY BUOY 1300   61 66  240/  8     1015.6F
SISTER BAY LKSHO 1200   64     330/  7/  7   N/A
STURGEON BAY CG  1200   58 63  220/  2     1014.8      6   1
CHAMBERS ISLAND  1300   63     220/  3/  5 1014.6F
MENOMINEE LKSHOR 1300   60     330/  2/  3 1015.2S
$$


USA.gov is the U.S. government's official web portal to all federal, state and local government web resources and services.